Preview of NWS' New Version of Forecast
This preview is not operational and should not be used for support decisions.

Regional Weather Roundup (RWR)

Issued by National Weather Service (NWS)

                            
000
ASUS46 KPQR 171310
RWROR 

OREGON REGIONAL WEATHER ROUNDUP
NATIONAL WEATHER SERVICE PORTLAND OR
600 AM PDT SUN MAR 17 2019

NOTE: "FAIR" INDICATES FEW OR NO CLOUDS BELOW 12,000 FEET WITH
NO SIGNIFICANT WEATHER AND/OR OBSTRUCTIONS TO VISIBILITY.

ORZ001>013-171400-
NORTHWEST OREGON

  
CITY           SKY/WX    TMP DP  RH WIND       PRES   REMARKS
ASTORIA        CLEAR     35  33  92 SE3       30.25R                  
TILLAMOOK      CLEAR     32  32 100 CALM      30.26R                  
NEWPORT        CLEAR     41  39  93 E6        30.23S                  
PORTLAND       CLEAR     38  32  79 CALM      30.27R                  
VANCOUVER WA   CLEAR     34  29  82 CALM      30.26R                  
SCAPPOOSE      CLEAR     35  32  88 CALM      30.26R                  
HILLSBORO      CLEAR     34  32  92 CALM      30.25R                  
AURORA         CLEAR     41  33  73 NW3       30.24F                  
MCMINNVILLE    CLEAR     36  34  92 CALM      30.24S                  
SALEM          CLEAR     37  31  78 CALM      30.23S                  
CORVALLIS      CLEAR     35  34  96 W3        30.24R                  
EUGENE         CLEAR     38  35  89 CALM      30.22S                  
$$

ORZ021-028-171400-
SOUTHWEST OREGON

  
CITY           SKY/WX    TMP DP  RH WIND       PRES   REMARKS
NORTH BEND     LGT RAIN  38  38 100 SE5       30.21R VSB 1/4          
BROOKINGS      LGT RAIN  45  45 100 CALM      30.13S VSB 1/4          
ROSEBURG       CLEAR     40  36  86 CALM      30.21R                  
SEXTON SUMMIT  CLEAR     46  29  51 SE3       30.16R                  
GRANTS PASS    LGT RAIN  36  34  93 CALM      30.21R                  
MEDFORD        CLEAR     40  32  73 CALM      30.18S                  
$$

ORZ014>016-041-171400-
COLUMBIA GORGE

  
CITY           SKY/WX    TMP DP  RH WIND       PRES   REMARKS
TROUTDALE      CLEAR     45  33  63 NE10      30.25S                  
HOOD RIVER     CLEAR     30  30 100 MISG      30.37S                  
THE DALLES     CLEAR     32  29  88 SE3       30.38S                  
$$

ORZ029>031-041-044-049-050-061>064-502-503-505>511-171400-
EASTERN OREGON

  
CITY           SKY/WX    TMP DP  RH WIND       PRES   REMARKS
MADRAS         NOT AVBL                                               
REDMOND        MOCLDY    27  23  85 CALM      30.27R                  
BEND           MOCLDY    28  27  93 CALM      30.26S                  
PRINEVILLE     PTCLDY    28  27  93 CALM      30.27R                  
KLAMATH FALLS  CLOUDY    32  25  75 N6        30.19S                  
LAKEVIEW       PTCLDY    28  23  81 NW10      30.21R WCI  19          
HERMISTON      MOCLDY    30  28  92 CALM      30.37R                  
PENDLETON      PTCLDY    31  28  89 SE6       30.33R                  
JOHN DAY       MOCLDY    33  25  70 SE7       30.27S                  
MEACHAM        CLEAR     19  15  84 CALM      30.27R                  
LA GRANDE      CLEAR     25  23  92 NW3       30.33R                  
BAKER CITY     PTCLDY    25  22  88 CALM      30.30R                  
BURNS          MOCLDY    29  22  75 W8        30.26R                  
ROME             N/A     23  20  88 CALM      30.24R                  
ONTARIO        PTCLDY    28  23  81 W3        30.33R                  
$$